This is the latest recevied weather packets stored in our database for station/object LA3HX. If no packets are shown the sender has not sent any weather packets the latest 10 day(s).
| Time | Temp. | Humidity | Pressure | Rain* | Wind** | Luminosity | Snow |
|---|---|---|---|---|---|---|---|
| 1777635306 | 7.22° C | 10% | 999.6 hPa | 0 mm | - | - | - |
| 1777635008 | 7.22° C | 10% | 999.6 hPa | 0 mm | - | - | - |
| 1777634106 | 7.22° C | 10% | 999.9 hPa | 0 mm | - | - | - |
| 1777633808 | 7.22° C | 10% | 1000 hPa | 0 mm | - | - | - |
| 1777628706 | 7.22° C | 10% | 1000.8 hPa | 0 mm | - | - | - |
| 1777627806 | 7.22° C | 10% | 1000.8 hPa | 0 mm | - | - | - |
| 1777624206 | 7.22° C | 10% | 1001 hPa | 0 mm | - | - | - |
| 1777620006 | 7.22° C | 10% | 1001.5 hPa | 0 mm | - | - | - |
| 1777618206 | 7.22° C | 10% | 1001.4 hPa | 0 mm | - | - | - |
| 1777617306 | 7.22° C | 10% | 1001.3 hPa | 0 mm | - | - | - |
| 1777609506 | 7.22° C | 10% | 1001.4 hPa | 0 mm | - | - | - |
| 1777609206 | 7.22° C | 33% | 1001.6 hPa | 0 mm | - | - | - |
| 1777604405 | 7.22° C | 94% | 1001.7 hPa | 0 mm | - | - | - |
| 1777604105 | 7.22° C | 94% | 1001.5 hPa | 0 mm | - | - | - |
| 1777602006 | 7.22° C | 94% | 1001.8 hPa | 0 mm | - | - | - |
| 1777601706 | 7.78° C | 90% | 1001.9 hPa | 0 mm | - | - | - |
| 1777599006 | 7.22° C | 92% | 1001.9 hPa | 0 mm | - | - | - |
| 1777598106 | 7.22° C | 92% | 1002 hPa | 0 mm | - | - | - |
| 1777597506 | 7.22° C | 92% | 1001.8 hPa | 0 mm | - | - | - |
| 1777596606 | 7.22° C | 91% | 1002 hPa | 0 mm | - | - | - |
| 1777593905 | 7.78° C | 83% | 1002.5 hPa | 0 mm | - | - | - |
| 1777591806 | 7.78° C | 82% | 1002.6 hPa | 0 mm | - | - | - |
| 1777590906 | 7.78° C | 81% | 1002.8 hPa | 0 mm | - | - | - |
| 1777589406 | 7.78° C | 78% | 1002.5 hPa | 0 mm | - | - | - |
| 1777588506 | 8.33° C | 76% | 1002.9 hPa | 0 mm | - | - | - |
* Rain latest hour (hover to see other rain measurements)
** Current wind speed in m/s (hover to see current wind gust speed)